GFSNIL_prec_cthk_210.txt.gz
RH
48 47 52 53 50 51 51 52 54 59 61 63 72 74 75 79 76 67 58 55 55 54
48 51 53 52 52 54 56 59 64 68 67 70 76 75 68 64 52 45 45 48 50 51
52 55 58 57 59 60 63 65 64 64 67 66 63 60 51 40 39 42 40 38 37 43
55 57 58 58 59 62 64 63 63 62 61 56 46 40 40 43 43 43 42 41 43 46
62 62 61 63 62 62 60 57 53 48 44 44 44 45 46 45 45 46 45 44 47 56
67 67 64 59 54 50 48 48 49 50 51 52 52 52 51 50 49 50 56 60 63 65
62 60 57 53 50 48 50 52 54 57 58 58 57 57 56 60 64 68 65 68 66 64
58 59 60 59 57 55 57 60 61 61 60 61 61 64 66 68 66 67 62 58 57 55
62 64 66 66 65 64 64 62 60 64 69 70 70 70 67 63 65 61 58 53 51 45
70 72 74 75 72 69 70 71 71 70 70 71 70 73 70 70 55 54 53 46 36 35
78 78 78 80 79 81 80 82 81 77 76 76 76 69 64 61 60 54 46 41 41 35
83 83 81 83 84 84 82 84 83 79 83 79 78 68 60 52 46 45 43 36 31 28
86 86 88 89 85 86 82 80 82 85 79 63 61 55 51 48 43 35 33 30 28 27
88 90 92 92 92 95 94 92 84 76 76 64 52 48 45 40 36 32 29 26 24 22

GFSNIL_prec_cthk_216.txt.gz
RH
20 23 28 35 41 45 49 55 62 64 64 66 66 69 73 74 76 76 76 80 92 94
18 23 29 36 43 44 48 52 57 61 62 66 70 70 72 78 77 83 85 85 95 97
20 25 30 36 40 42 48 57 59 62 65 67 69 73 73 77 78 89 92 94 91 89
20 23 28 32 37 41 45 48 52 57 61 63 70 75 79 82 87 95 94 92 87 72
18 22 25 28 34 41 43 50 57 58 60 64 69 71 77 80 87 90 80 68 62 62
19 23 27 33 39 44 48 52 58 62 64 67 71 76 83 87 84 73 68 69 59 54
19 24 31 37 41 46 50 55 61 66 71 77 80 82 84 81 71 67 60 57 59 61
21 25 32 39 45 53 58 66 70 73 77 79 80 80 73 65 61 59 57 57 57 59
26 29 38 44 54 59 65 72 77 77 74 73 69 67 66 64 61 60 60 60 63 70
30 34 42 51 60 65 73 78 76 73 70 68 69 66 64 64 64 63 67 73 80 85
39 40 44 53 64 74 78 77 73 71 69 67 67 69 69 68 71 81 87 92 92 91
42 45 48 58 66 71 73 73 70 70 70 72 72 70 72 82 92 95 93 94 93 87
53 56 59 67 71 71 72 73 74 76 75 73 79 88 94 98 97 97 95 91 78 66
66 70 71 70 71 73 75 77 78 77 87 94 95 96 97 95 89 75 64 58 52 49

GFSNIL_prec_cthk_219.txt.gz
RH
14 15 16 20 24 29 34 39 47 54 60 63 62 71 76 76 76 72 76 80 81 86
13 13 14 17 22 27 33 38 43 48 54 60 60 64 69 74 75 76 77 79 85 88
13 14 14 17 21 25 32 39 45 42 51 53 56 61 64 72 76 76 78 81 87 87
14 13 14 17 21 27 34 37 42 40 53 55 60 64 67 71 77 79 80 82 83 86
13 13 13 17 22 26 31 36 40 44 48 48 52 58 61 69 77 80 89 84 85 89
11 12 12 14 18 23 26 33 38 39 44 50 56 61 65 71 75 76 85 86 89 96
11 13 14 16 18 23 27 34 39 42 47 52 59 66 73 76 81 83 86 90 89 80
14 13 15 18 20 23 28 35 37 45 53 62 69 74 79 83 88 88 84 82 74 69
18 15 17 22 26 28 32 37 45 55 61 68 75 82 84 85 82 80 77 71 66 63
20 19 21 27 32 34 40 43 50 60 70 76 78 78 80 81 78 73 68 64 63 62
24 27 32 33 36 42 47 47 55 62 72 74 75 76 79 75 68 64 63 63 70 80
37 44 42 42 46 49 53 53 60 68 73 77 77 73 70 67 65 67 74 82 85 94
55 53 50 53 52 56 59 62 66 70 74 72 71 65 64 67 76 85 88 93 94 95
65 64 62 60 62 66 69 67 68 67 72 73 69 65 75 85 90 93 94 96 91 82

GFSNIL_prec_cthk_222.txt.gz
RH
13 14 15 15 15 17 20 24 29 32 37 42 52 58 63 64 67 71 73 75 80 81
12 14 14 13 14 17 19 23 28 33 37 41 43 50 59 60 63 67 72 76 80 82
13 15 13 13 15 15 17 21 26 31 34 38 40 46 52 56 60 61 67 72 80 84
14 14 14 14 14 14 16 20 24 29 33 42 38 40 49 52 57 62 63 70 77 81
14 14 14 13 14 14 16 19 22 26 32 34 36 38 48 51 54 61 65 70 74 82
16 16 14 14 14 15 18 22 22 23 27 31 36 38 42 51 55 60 72 74 77 76
19 16 15 14 15 15 17 18 20 23 26 31 35 40 45 51 58 63 71 83 80 85
18 18 19 19 18 18 19 22 25 27 30 31 35 39 47 56 63 71 81 79 86 90
23 22 23 22 23 24 22 24 28 31 34 36 38 44 52 58 66 76 81 84 88 86
29 28 29 27 29 28 26 26 32 35 37 43 44 49 53 64 70 74 78 75 79 78
35 37 38 35 34 32 35 34 36 39 43 45 48 55 58 65 69 73 72 73 72 68
49 51 46 44 41 39 41 46 51 48 47 51 57 57 67 71 75 90 71 65 64 68
57 52 48 51 47 46 55 58 58 56 59 61 62 65 66 69 67 66 68 72 75 79
53 54 51 59 60 64 63 62 60 63 64 64 66 65 64 63 63 68 72 76 80 83